Regional Weather Roundup
Issued by NWS Tiyan, Guam

Home | Current Version | Previous Version | Text Only | Print | Product List | Glossary On
Versions: 1 2 3 4 5 6 7 8 9 10 11 12 13 14 15 16 17 18 19 20 21 22 23 24 25 26 27 28 29 30 31 32 33 34 35 36 37 38 39 40 41 42 43 44 45 46 47 48 49 50
000
ASGM40 PGUM 190112
RWRGUM
WEATHER ROUNDUP FOR THE MARIANAS
NATIONAL WEATHER SERVICE TIYAN GU
1100 AM CHST THU JAN 19 2017

GUZ001>004-190200-
MARIANA ISLANDS-

CITY           SKY/WX    TMP DP  RH WIND       PRES   REMARKS
GUAM AIRPORT   MOSUNNY   82  75  78 NE21G29   30.00F
ANDERSEN AFB   PTSUNNY   79  75  89 NE23      30.02F
ROTA AIRPORT   PTSUNNY   79  72  78 NE16G28   30.03F
TINIAN AP      CLOUDY    79  72  78 NE18      30.02F
SAIPAN AP      CLOUDY    81  72  74 E24G33    30.03S

$$




USA.gov is the U.S. government's official web portal to all federal, state and local government web resources and services.